VKG309 LPMA-EFHK

Flight info

Callsign VKG309
Flight time N/A
Altitude 35000
Route DEGU1W DEGUN ROLAR VERAM ASMAR DEMOS LOTEE AZFIC ERIGA GODIX PODEM BAZOS BELDI VICOT ALASA ALAMI OKEVU EVADI Y370 DIVAM DIVA5A
Aircraft A21N/H-NONE/C

Departure

Time 2026-05-04 13:51
Airport Cristiano Ronaldo International Airport (LPMA)

Arrival

Time N/A
Airport Helsinki Vantaa Airport (EFHK)
Time Latitude Longitude Altitude Speed Heading
2026-05-04 13:38 32.69615 -16.77322 179 ft 0 kts 137°
2026-05-04 13:44 32.69616 -16.77323 179 ft 2 kts 137°
2026-05-04 13:44 32.69629 -16.77337 179 ft 3 kts 137°
2026-05-04 13:45 32.69641 -16.77351 179 ft 2 kts 137°
2026-05-04 13:45 32.69653 -16.77364 179 ft 2 kts 111°
2026-05-04 13:45 32.69653 -16.77383 179 ft 2 kts 52°
2026-05-04 13:45 32.69655 -16.77381 179 ft 2 kts 45°
2026-05-04 13:46 32.69658 -16.77378 179 ft 0 kts 45°
2026-05-04 13:46 32.69726 -16.77315 179 ft 17 kts 42°
2026-05-04 13:46 32.69776 -16.77257 179 ft 8 kts 47°
2026-05-04 13:47 32.69790 -16.77240 179 ft 0 kts 46°
2026-05-04 13:48 32.69791 -16.77238 179 ft 5 kts 45°
2026-05-04 13:48 32.69888 -16.77181 179 ft 16 kts
2026-05-04 13:48 32.69993 -16.77178 179 ft 11 kts 15°
2026-05-04 13:48 32.70046 -16.77151 179 ft 8 kts 31°
2026-05-04 13:49 32.70182 -16.77021 179 ft 24 kts 46°
2026-05-04 13:49 32.70345 -16.76813 179 ft 43 kts 43°
2026-05-04 13:49 32.70547 -16.76569 179 ft 34 kts 49°
2026-05-04 13:49 32.70652 -16.76441 179 ft 9 kts 19°
2026-05-04 13:50 32.70672 -16.76446 179 ft 1 kts 298°
2026-05-04 13:50 32.70657 -16.76477 179 ft 10 kts 220°
2026-05-04 13:50 32.70575 -16.76534 179 ft 47 kts 212°
2026-05-04 13:50 32.70095 -16.77075 180 ft 146 kts 226°
2026-05-04 13:51 32.69209 -16.78097 579 ft 197 kts 221°
2026-05-04 13:51 32.67988 -16.78772 1201 ft 182 kts 175°
2026-05-04 13:51 32.67012 -16.78289 1676 ft 135 kts 146°
2026-05-04 13:51 32.66369 -16.77277 2085 ft 179 kts 111°
2026-05-04 13:52 32.64920 -16.74386 3179 ft 231 kts 142°
2026-05-04 13:52 32.63643 -16.73149 4048 ft 242 kts 137°
2026-05-04 13:52 32.62701 -16.71466 5005 ft 252 kts 110°
2026-05-04 13:53 32.62490 -16.69415 5924 ft 258 kts 90°
2026-05-04 13:53 32.62560 -16.68045 6422 ft 264 kts 85°
2026-05-04 13:53 32.63075 -16.65928 6949 ft 279 kts 64°
2026-05-04 13:54 32.65382 -16.61550 7814 ft 343 kts 56°
2026-05-04 13:54 32.66738 -16.59114 8340 ft 366 kts 56°
2026-05-04 13:54 32.69673 -16.53816 9473 ft 395 kts 56°
2026-05-04 13:55 32.71221 -16.51088 10192 ft 402 kts 53°
2026-05-04 13:55 32.73688 -16.47503 11076 ft 409 kts 47°
2026-05-04 13:55 32.73692 -16.47499 11077 ft 409 kts 47°
2026-05-04 13:56 32.75625 -16.44980 11694 ft 414 kts 46°
2026-05-04 13:56 32.75685 -16.44902 11712 ft 414 kts 46°
2026-05-04 13:57 32.76959 -16.43310 12091 ft 417 kts 43°
2026-05-04 13:58 32.83689 -16.36560 13836 ft 428 kts 37°
2026-05-04 13:58 32.88355 -16.32060 14915 ft 434 kts 37°
2026-05-04 13:58 32.90271 -16.30226 15404 ft 436 kts 37°
2026-05-04 14:01 32.90905 -16.29620 15561 ft 437 kts 37°
2026-05-04 14:01 32.95039 -16.25658 16468 ft 444 kts 37°
2026-05-04 14:02 32.97452 -16.23341 16982 ft 447 kts 37°
2026-05-04 14:02 32.99856 -16.21029 17469 ft 450 kts 37°
2026-05-04 14:02 33.02304 -16.18671 17940 ft 454 kts 37°
2026-05-04 14:02 33.04775 -16.16287 18410 ft 457 kts 37°
2026-05-04 14:03 33.07256 -16.13889 18809 ft 461 kts 37°
2026-05-04 14:03 33.09759 -16.11465 19198 ft 464 kts 37°
2026-05-04 14:03 33.12279 -16.09018 19601 ft 468 kts 37°
2026-05-04 14:03 33.14387 -16.06969 19941 ft 471 kts 37°
2026-05-04 14:04 33.18520 -16.02867 20661 ft 478 kts 41°
2026-05-04 14:04 33.20817 -15.99980 21133 ft 483 kts 49°